This is the latest recevied weather packets stored in our database for station/object KA1JKB. If no packets are shown the sender has not sent any weather packets the latest 10 day(s).
| Time | Temp. | Humidity | Pressure | Rain* | Wind** | Luminosity | Snow |
|---|---|---|---|---|---|---|---|
| 1788283852 | 31.11° C | 77% | 1012.9 hPa | 0 mm | - | 649 W/m² | - |
| 1788283547 | 31.11° C | 78% | 1012.7 hPa | 0 mm | - | 678 W/m² | - |
| 1788283245 | 31.11° C | 79% | 1012.8 hPa | 0 mm | - | 659 W/m² | - |
| 1788282944 | 30.56° C | 78% | 1012.9 hPa | 0 mm | - | 652 W/m² | - |
| 1788282661 | 31.11° C | 77% | 1012.7 hPa | 0 mm | - | 661 W/m² | - |
| 1788282343 | 31.11° C | 79% | 1012.8 hPa | 0 mm | - | 679 W/m² | - |
| 1788282038 | 30.56° C | 78% | 1013 hPa | 0 mm | - | 712 W/m² | - |
| 1788281732 | 31.11° C | 78% | 1013 hPa | 0 mm | - | 372 W/m² | - |
| 1788281428 | 30.56° C | 78% | 1012.8 hPa | 0 mm | - | 744 W/m² | - |
| 1788281123 | 30.56° C | 79% | 1012.9 hPa | 0 mm | - | 737 W/m² | - |
| 1788280818 | 30.56° C | 79% | 1013.1 hPa | 0 mm | - | 293 W/m² | - |
| 1788280514 | 30.56° C | 80% | 1013 hPa | 0 mm | - | 582 W/m² | - |
| 1788280212 | 30.56° C | 78% | 1012.8 hPa | 0 mm | - | 782 W/m² | - |
| 1788279908 | 30.56° C | 78% | 1013.1 hPa | 0 mm | - | 764 W/m² | - |
| 1788279607 | 30.56° C | 81% | 1013.1 hPa | 0 mm | - | 570 W/m² | - |
| 1788279307 | 30° C | 79% | 1013.3 hPa | 0 mm | - | 903 W/m² | - |
| 1788279006 | 29.44° C | 82% | 1013.2 hPa | 0 mm | - | 324 W/m² | - |
| 1788278703 | 30° C | 79% | 1013.3 hPa | 0 mm | - | 855 W/m² | - |
| 1788278403 | 30° C | 78% | 1013.4 hPa | 0 mm | - | 813 W/m² | - |
| 1788278101 | 30° C | 79% | 1013.2 hPa | 0 mm | - | 783 W/m² | - |
| 1788277798 | 30° C | 81% | 1013.3 hPa | 0 mm | - | 723 W/m² | - |
| 1788277497 | 28.89° C | 83% | 1013.3 hPa | 0 mm | - | 624 W/m² | - |
| 1788277192 | 28.89° C | 83% | 1013.6 hPa | 0 mm | - | 831 W/m² | - |
| 1788276887 | 28.89° C | 82% | 1013.2 hPa | 0 mm | - | 354 W/m² | - |
| 1788276587 | 28.89° C | 82% | 1013.4 hPa | 0 mm | - | 525 W/m² | - |
* Rain latest hour (hover to see other rain measurements)
** Current wind speed in m/s (hover to see current wind gust speed)